Time,TemperatureF,DewpointF,PressureIn,WindDirection,WindDirectionDegrees,WindSpeedMPH,WindSpeedGustMPH,Humidity,HourlyPrecipIn,Conditions,Clouds,dailyrainin,SoftwareType,DateUTC
2013-12-12 00:00:00,2.6,-2.2,30.58,SSW,199,0.0,0.0,80,0.00,,,0.00,Wunderground v.1.15,2013-12-12 06:00:00,
2013-12-12 00:09:00,3.0,-2.0,30.58,SSW,196,1.0,1.0,79,0.00,,,0.00,Wunderground v.1.15,2013-12-12 06:09:00,
2013-12-12 00:14:00,3.0,-2.0,30.58,SSW,192,1.0,1.0,79,0.00,,,0.00,Wunderground v.1.15,2013-12-12 06:14:00,
2013-12-12 00:19:00,3.2,-2.1,30.57,South,182,1.0,5.0,78,0.00,,,0.00,Wunderground v.1.15,2013-12-12 06:19:00,
2013-12-12 00:24:00,3.3,-2.0,30.57,SSW,196,3.0,6.0,78,0.00,,,0.00,Wunderground v.1.15,2013-12-12 06:24:00,
2013-12-12 00:29:00,3.5,-1.8,30.57,SW,217,4.0,5.0,78,0.00,,,0.00,Wunderground v.1.15,2013-12-12 06:29:00,
2013-12-12 00:35:00,3.7,-1.9,30.56,SSW,194,5.0,5.0,77,0.00,,,0.00,Wunderground v.1.15,2013-12-12 06:35:00,
2013-12-12 00:40:00,3.8,-1.8,30.56,SSW,200,3.0,3.0,77,0.00,,,0.00,Wunderground v.1.15,2013-12-12 06:40:00,
2013-12-12 00:45:00,4.2,-1.4,30.55,SSW,203,3.0,5.0,77,0.00,,,0.00,Wunderground v.1.15,2013-12-12 06:45:00,
2013-12-12 00:54:00,4.8,-1.4,30.55,SSW,202,5.0,6.0,75,0.00,,,0.00,Wunderground v.1.15,2013-12-12 06:54:00,
2013-12-12 01:04:00,4.8,-1.4,30.55,South,184,4.0,5.0,75,0.00,,,0.00,Wunderground v.1.15,2013-12-12 07:04:00,
2013-12-12 01:09:00,4.7,-1.5,30.55,SSW,207,3.0,6.0,75,0.00,,,0.00,Wunderground v.1.15,2013-12-12 07:09:00,
2013-12-12 01:14:00,4.6,-1.6,30.55,South,191,3.0,6.0,75,0.00,,,0.00,Wunderground v.1.15,2013-12-12 07:14:00,
2013-12-12 01:19:00,4.6,-1.6,30.54,SSW,196,4.0,4.0,75,0.00,,,0.00,Wunderground v.1.15,2013-12-12 07:19:00,
2013-12-12 01:24:00,4.6,-1.6,30.54,South,190,4.0,4.0,75,0.00,,,0.00,Wunderground v.1.15,2013-12-12 07:24:00,
2013-12-12 01:30:00,4.5,1.0,30.54,South,190,3.0,4.0,85,0.00,,,0.00,Wunderground v.1.15,2013-12-12 07:30:00,
2013-12-12 01:34:00,4.5,-1.4,30.53,SSW,192,3.0,4.0,76,0.00,,,0.00,Wunderground v.1.15,2013-12-12 07:34:00,
2013-12-12 01:39:00,4.4,-1.5,30.53,South,188,4.0,4.0,76,0.00,,,0.00,Wunderground v.1.15,2013-12-12 07:39:00,
2013-12-12 01:45:00,4.4,-1.5,30.53,South,175,5.0,5.0,76,0.00,,,0.00,Wunderground v.1.15,2013-12-12 07:45:00,
2013-12-12 01:49:00,4.4,-1.5,30.53,South,189,4.0,5.0,76,0.00,,,0.00,Wunderground v.1.15,2013-12-12 07:49:00,
2013-12-12 01:54:00,4.4,-1.5,30.53,SSW,202,4.0,6.0,76,0.00,,,0.00,Wunderground v.1.15,2013-12-12 07:54:00,
2013-12-12 02:00:00,4.4,-1.5,30.53,SSW,196,4.0,8.0,76,0.00,,,0.00,Wunderground v.1.15,2013-12-12 08:00:00,
2013-12-12 02:10:00,4.4,-1.5,30.52,South,183,5.0,5.0,76,0.00,,,0.00,Wunderground v.1.15,2013-12-12 08:10:00,
2013-12-12 02:15:00,4.4,-1.5,30.52,SSE,167,5.0,7.0,76,0.00,,,0.00,Wunderground v.1.15,2013-12-12 08:15:00,
2013-12-12 02:20:00,4.4,-1.5,30.52,SSW,200,6.0,6.0,76,0.00,,,0.00,Wunderground v.1.15,2013-12-12 08:20:00,
2013-12-12 02:29:00,4.5,-1.4,30.52,SSW,194,4.0,8.0,76,0.00,,,0.00,Wunderground v.1.15,2013-12-12 08:29:00,
2013-12-12 02:34:00,4.6,-1.3,30.51,SSW,197,5.0,8.0,76,0.00,,,0.00,Wunderground v.1.15,2013-12-12 08:34:00,
2013-12-12 02:39:00,4.7,-1.2,30.51,SSW,209,5.0,6.0,76,0.00,,,0.00,Wunderground v.1.15,2013-12-12 08:39:00,
2013-12-12 02:45:00,4.7,-1.2,30.51,SSW,202,4.0,6.0,76,0.00,,,0.00,Wunderground v.1.15,2013-12-12 08:45:00,
2013-12-12 02:50:00,4.7,-1.2,30.51,SSW,195,4.0,7.0,76,0.00,,,0.00,Wunderground v.1.15,2013-12-12 08:50:00,
2013-12-12 02:55:00,4.7,-1.2,30.50,SSW,198,4.0,7.0,76,0.00,,,0.00,Wunderground v.1.15,2013-12-12 08:55:00,
2013-12-12 03:04:00,4.6,-1.3,30.50,SSW,199,2.0,7.0,76,0.00,,,0.00,Wunderground v.1.15,2013-12-12 09:04:00,
2013-12-12 03:09:00,4.6,-1.3,30.50,South,182,3.0,4.0,76,0.00,,,0.00,Wunderground v.1.15,2013-12-12 09:09:00,
2013-12-12 03:15:00,4.6,-1.3,30.50,South,187,3.0,4.0,76,0.00,,,0.00,Wunderground v.1.15,2013-12-12 09:15:00,
2013-12-12 03:20:00,4.7,-0.9,30.49,SSE,165,3.0,4.0,77,0.00,,,0.00,Wunderground v.1.15,2013-12-12 09:20:00,
2013-12-12 05:40:00,7.7,1.1,30.44,SSW,198,4.0,4.0,74,0.00,,,0.00,Wunderground v.1.15,2013-12-12 11:40:00,
2013-12-12 05:50:00,8.1,1.5,30.44,SSW,201,4.0,6.0,74,0.00,,,0.00,Wunderground v.1.15,2013-12-12 11:50:00,
2013-12-12 05:55:00,8.4,1.8,30.44,SW,221,4.0,6.0,74,0.00,,,0.00,Wunderground v.1.15,2013-12-12 11:55:00,
2013-12-12 06:00:00,8.6,2.0,30.44,South,188,2.0,2.0,74,0.00,,,0.00,Wunderground v.1.15,2013-12-12 12:00:00,
2013-12-12 06:10:00,8.9,2.0,30.44,SW,227,4.0,4.0,73,0.00,,,0.00,Wunderground v.1.15,2013-12-12 12:10:00,
2013-12-12 06:15:00,9.0,2.1,30.44,SW,229,3.0,4.0,73,0.00,,,0.00,Wunderground v.1.15,2013-12-12 12:15:00,
2013-12-12 06:20:00,9.1,2.2,30.44,SW,219,2.0,5.0,73,0.00,,,0.00,Wunderground v.1.15,2013-12-12 12:20:00,
2013-12-12 06:30:00,9.5,2.3,30.44,SW,217,4.0,4.0,72,0.00,,,0.00,Wunderground v.1.15,2013-12-12 12:30:00,
2013-12-12 06:35:00,9.7,2.5,30.43,South,180,2.0,4.0,72,0.00,,,0.00,Wunderground v.1.15,2013-12-12 12:35:00,
2013-12-12 06:40:00,9.8,2.6,30.44,WSW,254,2.0,2.0,72,0.00,,,0.00,Wunderground v.1.15,2013-12-12 12:40:00,
2013-12-12 06:50:00,10.0,2.8,30.44,SW,215,2.0,2.0,72,0.00,,,0.00,Wunderground v.1.15,2013-12-12 12:50:00,
2013-12-12 06:55:00,10.1,2.9,30.44,SSW,198,2.0,2.0,72,0.00,,,0.00,Wunderground v.1.15,2013-12-12 12:55:00,
2013-12-12 07:00:00,10.0,2.8,30.44,SSW,206,1.0,1.0,72,0.00,,,0.00,Wunderground v.1.15,2013-12-12 13:00:00,
2013-12-12 07:10:00,10.0,2.8,30.43,SW,227,1.0,1.0,72,0.00,,,0.00,Wunderground v.1.15,2013-12-12 13:10:00,
2013-12-12 07:15:00,10.0,2.8,30.43,SSW,194,1.0,4.0,72,0.00,,,0.00,Wunderground v.1.15,2013-12-12 13:15:00,
2013-12-12 07:20:00,10.0,2.8,30.43,South,178,2.0,2.0,72,0.00,,,0.00,Wunderground v.1.15,2013-12-12 13:20:00,
2013-12-12 07:30:00,10.0,3.1,30.43,SSW,205,2.0,5.0,73,0.00,,,0.00,Wunderground v.1.15,2013-12-12 13:30:00,
2013-12-12 07:35:00,9.9,3.0,30.43,SW,227,2.0,5.0,73,0.00,,,0.00,Wunderground v.1.15,2013-12-12 13:35:00,
2013-12-12 07:40:00,10.0,3.1,30.43,SSW,205,1.0,1.0,73,0.00,,,0.00,Wunderground v.1.15,2013-12-12 13:40:00,
2013-12-12 07:50:00,10.2,3.3,30.43,South,187,1.0,1.0,73,0.00,,,0.00,Wunderground v.1.15,2013-12-12 13:50:00,
2013-12-12 07:55:00,10.3,3.4,30.44,WSW,242,1.0,1.0,73,0.00,,,0.00,Wunderground v.1.15,2013-12-12 13:55:00,
2013-12-12 08:00:00,10.4,3.5,30.43,SW,232,1.0,1.0,73,0.00,,,0.00,Wunderground v.1.15,2013-12-12 14:00:00,
2013-12-12 08:05:00,10.5,3.3,30.43,SW,217,2.0,2.0,72,0.00,,,0.00,Wunderground v.1.15,2013-12-12 14:05:00,
2013-12-12 08:15:00,10.7,3.4,30.43,SW,234,2.0,4.0,72,0.00,,,0.00,Wunderground v.1.15,2013-12-12 14:15:00,
2013-12-12 08:20:00,11.0,3.7,30.43,SSW,194,2.0,2.0,72,0.00,,,0.00,Wunderground v.1.15,2013-12-12 14:20:00,
2013-12-12 08:25:00,11.6,4.3,30.43,SSW,210,2.0,2.0,72,0.00,,,0.00,Wunderground v.1.15,2013-12-12 14:25:00,
2013-12-12 08:35:00,12.2,4.9,30.45,SW,220,1.0,5.0,72,0.00,,,0.00,Wunderground v.1.15,2013-12-12 14:35:00,
2013-12-12 08:40:00,12.5,4.9,30.44,SW,214,1.0,1.0,71,0.00,,,0.00,Wunderground v.1.15,2013-12-12 14:40:00,
2013-12-12 08:50:00,12.9,5.3,30.45,SW,229,1.0,9.0,71,0.00,,,0.00,Wunderground v.1.15,2013-12-12 14:50:00,
2013-12-12 08:55:00,13.1,5.5,30.45,SSW,209,1.0,9.0,71,0.00,,,0.00,Wunderground v.1.15,2013-12-12 14:55:00,
2013-12-12 09:05:00,13.4,5.7,30.45,SSW,213,1.0,1.0,71,0.00,,,0.00,Wunderground v.1.15,2013-12-12 15:05:00,
2013-12-12 09:10:00,13.7,6.0,30.44,SSW,196,1.0,1.0,71,0.00,,,0.00,Wunderground v.1.15,2013-12-12 15:10:00,
2013-12-12 09:15:00,14.1,6.4,30.43,SSW,199,1.0,5.0,71,0.00,,,0.00,Wunderground v.1.15,2013-12-12 15:15:00,
2013-12-12 09:25:00,14.8,6.8,30.43,SSW,199,3.0,4.0,70,0.00,,,0.00,Wunderground v.1.15,2013-12-12 15:25:00,
2013-12-12 09:30:00,14.7,6.7,30.43,SSW,207,2.0,2.0,70,0.00,,,0.00,Wunderground v.1.15,2013-12-12 15:30:00,
2013-12-12 09:35:00,14.8,6.8,30.44,SW,224,2.0,2.0,70,0.00,,,0.00,Wunderground v.1.15,2013-12-12 15:35:00,
2013-12-12 09:45:00,15.4,7.4,30.45,SW,234,2.0,2.0,70,0.00,,,0.00,Wunderground v.1.15,2013-12-12 15:45:00,
2013-12-12 09:50:00,15.7,7.6,30.44,SW,231,1.0,1.0,70,0.00,,,0.00,Wunderground v.1.15,2013-12-12 15:50:00,
2013-12-12 09:55:00,15.9,7.8,30.45,WSW,248,1.0,1.0,70,0.00,,,0.00,Wunderground v.1.15,2013-12-12 15:55:00,
2013-12-12 10:05:00,16.4,8.0,30.44,West,264,1.0,1.0,69,0.00,,,0.00,Wunderground v.1.15,2013-12-12 16:05:00,
2013-12-12 10:10:00,16.7,8.6,30.44,South,191,1.0,1.0,70,0.00,,,0.00,Wunderground v.1.15,2013-12-12 16:10:00,
2013-12-12 10:20:00,16.8,8.7,30.44,SW,227,1.0,6.0,70,0.00,,,0.00,Wunderground v.1.15,2013-12-12 16:20:00,
2013-12-12 10:25:00,16.8,8.7,30.44,West,266,1.0,6.0,70,0.00,,,0.00,Wunderground v.1.15,2013-12-12 16:25:00,
2013-12-12 10:30:00,16.9,8.8,30.43,West,265,3.0,9.0,70,0.00,,,0.00,Wunderground v.1.15,2013-12-12 16:30:00,
2013-12-12 10:40:00,17.2,9.4,30.43,SW,234,2.0,2.0,71,0.00,,,0.00,Wunderground v.1.15,2013-12-12 16:40:00,
2013-12-12 10:45:00,17.5,9.7,30.43,SW,229,1.0,2.0,71,0.00,,,0.00,Wunderground v.1.15,2013-12-12 16:45:00,
2013-12-12 10:50:00,17.9,10.1,30.43,SW,230,1.0,1.0,71,0.00,,,0.00,Wunderground v.1.15,2013-12-12 16:50:00,
2013-12-12 11:00:00,18.4,10.2,30.43,SE,143,1.0,1.0,70,0.00,,,0.00,Wunderground v.1.15,2013-12-12 17:00:00,
2013-12-12 11:05:00,18.5,10.7,30.43,SSW,209,1.0,1.0,71,0.00,,,0.00,Wunderground v.1.15,2013-12-12 17:05:00,
2013-12-12 11:10:00,18.9,11.0,30.43,WSW,250,1.0,1.0,71,0.00,,,0.00,Wunderground v.1.15,2013-12-12 17:10:00,
2013-12-12 11:15:00,19.2,11.3,30.43,WSW,254,0.0,1.0,71,0.00,,,0.00,Wunderground v.1.15,2013-12-12 17:15:00,
2013-12-12 11:20:00,19.6,11.7,30.42,WSW,246,0.0,0.0,71,0.00,,,0.00,Wunderground v.1.15,2013-12-12 17:20:00,
2013-12-12 11:25:00,19.8,11.9,30.42,SSW,200,0.0,0.0,71,0.00,,,0.00,Wunderground v.1.15,2013-12-12 17:25:00,
2013-12-12 11:35:00,20.4,12.5,30.41,SSW,212,0.0,1.0,71,0.00,,,0.00,Wunderground v.1.15,2013-12-12 17:35:00,
2013-12-12 11:40:00,21.0,12.7,30.41,WSW,253,0.0,0.0,70,0.00,,,0.00,Wunderground v.1.15,2013-12-12 17:40:00,
2013-12-12 11:45:00,21.8,13.5,30.41,WNW,303,0.0,0.0,70,0.00,,,0.00,Wunderground v.1.15,2013-12-12 17:45:00,
2013-12-12 11:50:00,22.2,13.2,30.41,SSW,209,0.0,2.0,68,0.00,,,0.00,Wunderground v.1.15,2013-12-12 17:50:00,
2013-12-12 11:55:00,22.6,14.0,30.41,West,263,0.0,2.0,69,0.00,,,0.00,Wunderground v.1.15,2013-12-12 17:55:00,
2013-12-12 12:00:00,23.3,14.6,30.40,SSW,212,0.0,0.0,69,0.00,,,0.00,Wunderground v.1.15,2013-12-12 18:00:00,
2013-12-12 12:10:00,24.3,14.6,30.40,WSW,241,0.0,0.0,66,0.00,,,0.00,Wunderground v.1.15,2013-12-12 18:10:00,
2013-12-12 12:15:00,24.7,14.6,30.39,WNW,292,0.0,0.0,65,0.00,,,0.00,Wunderground v.1.15,2013-12-12 18:15:00,
2013-12-12 12:25:00,25.2,14.7,30.39,SW,215,0.0,0.0,64,0.00,,,0.00,Wunderground v.1.15,2013-12-12 18:25:00,
2013-12-12 12:30:00,24.3,13.9,30.38,West,263,1.0,1.0,64,0.00,,,0.00,Wunderground v.1.15,2013-12-12 18:30:00,
2013-12-12 12:35:00,24.3,14.6,30.38,WSW,257,0.0,1.0,66,0.00,,,0.00,Wunderground v.1.15,2013-12-12 18:35:00,
2013-12-12 12:40:00,24.6,14.9,30.38,WSW,241,0.0,0.0,66,0.00,,,0.00,Wunderground v.1.15,2013-12-12 18:40:00,
2013-12-12 12:45:00,24.9,15.1,30.38,WSW,254,0.0,0.0,66,0.00,,,0.00,Wunderground v.1.15,2013-12-12 18:45:00,
2013-12-12 12:50:00,25.2,15.1,30.38,West,263,0.0,0.0,65,0.00,,,0.01,Wunderground v.1.15,2013-12-12 18:50:00,
2013-12-12 12:55:00,25.2,14.7,30.38,West,263,0.0,0.0,64,0.00,,,0.01,Wunderground v.1.15,2013-12-12 18:55:00,
2013-12-12 13:05:00,25.6,15.5,30.38,West,263,0.0,0.0,65,0.00,,,0.01,Wunderground v.1.15,2013-12-12 19:05:00,
2013-12-12 13:10:00,25.8,15.3,30.38,West,263,0.0,0.0,64,0.00,,,0.01,Wunderground v.1.15,2013-12-12 19:10:00,
2013-12-12 13:15:00,26.2,16.0,30.38,West,264,0.0,0.0,65,0.00,,,0.01,Wunderground v.1.15,2013-12-12 19:15:00,
2013-12-12 13:25:00,27.0,16.1,30.38,WNW,292,0.0,0.0,63,0.00,,,0.01,Wunderground v.1.15,2013-12-12 19:25:00,
2013-12-12 13:30:00,27.3,16.4,30.37,WNW,291,0.0,0.0,63,0.00,,,0.01,Wunderground v.1.15,2013-12-12 19:30:00,
2013-12-12 13:35:00,27.8,16.5,30.37,West,281,0.0,0.0,62,0.00,,,0.01,Wunderground v.1.15,2013-12-12 19:35:00,
2013-12-12 13:40:00,27.9,16.2,30.37,WNW,283,0.0,0.0,61,0.00,,,0.01,Wunderground v.1.15,2013-12-12 19:40:00,
2013-12-12 13:45:00,27.8,16.5,30.37,WNW,288,0.0,0.0,62,0.00,,,0.01,Wunderground v.1.15,2013-12-12 19:45:00,
2013-12-12 13:50:00,27.4,16.4,30.37,South,184,0.0,0.0,63,0.00,,,0.01,Wunderground v.1.15,2013-12-12 19:50:00,
2013-12-12 13:55:00,27.1,16.9,30.36,SSW,208,1.0,1.0,65,0.00,,,0.01,Wunderground v.1.15,2013-12-12 19:55:00,
2013-12-12 14:05:00,26.7,16.5,30.36,SSW,211,1.0,2.0,65,0.00,,,0.01,Wunderground v.1.15,2013-12-12 20:05:00,
2013-12-12 14:10:00,26.4,16.6,30.36,South,186,1.0,3.0,66,0.00,,,0.01,Wunderground v.1.15,2013-12-12 20:10:00,
2013-12-12 14:15:00,26.1,16.3,30.36,South,186,2.0,5.0,66,0.00,,,0.01,Wunderground v.1.15,2013-12-12 20:15:00,
2013-12-12 14:20:00,26.2,16.4,30.36,SSW,203,2.0,2.0,66,0.00,,,0.01,Wunderground v.1.15,2013-12-12 20:20:00,
2013-12-12 14:25:00,26.3,16.5,30.36,SSW,205,1.0,2.0,66,0.00,,,0.01,Wunderground v.1.15,2013-12-12 20:25:00,
2013-12-12 14:30:00,26.2,16.7,30.35,SSW,207,1.0,1.0,67,0.00,,,0.01,Wunderground v.1.15,2013-12-12 20:30:00,
2013-12-12 14:35:00,26.5,17.0,30.35,SSW,204,1.0,4.0,67,0.00,,,0.01,Wunderground v.1.15,2013-12-12 20:35:00,
2013-12-12 14:40:00,26.4,16.6,30.34,South,184,1.0,1.0,66,0.00,,,0.01,Wunderground v.1.15,2013-12-12 20:40:00,
2013-12-12 14:45:00,26.5,16.7,30.34,SSE,157,1.0,1.0,66,0.00,,,0.01,Wunderground v.1.15,2013-12-12 20:45:00,
2013-12-12 14:50:00,27.0,17.1,30.34,SW,223,0.0,4.0,66,0.00,,,0.01,Wunderground v.1.15,2013-12-12 20:50:00,
2013-12-12 14:55:00,27.3,17.4,30.34,SW,232,0.0,4.0,66,0.00,,,0.01,Wunderground v.1.15,2013-12-12 20:55:00,
2013-12-12 15:05:00,27.1,17.2,30.33,South,191,2.0,4.0,66,0.00,,,0.01,Wunderground v.1.15,2013-12-12 21:05:00,
2013-12-12 15:15:00,27.0,17.5,30.33,SSW,202,2.0,7.0,67,0.00,,,0.01,Wunderground v.1.15,2013-12-12 21:15:00,
2013-12-12 15:20:00,27.0,17.1,30.33,South,183,2.0,3.0,66,0.00,,,0.01,Wunderground v.1.15,2013-12-12 21:20:00,
2013-12-12 15:25:00,27.1,17.2,30.33,SSW,205,2.0,3.0,66,0.00,,,0.01,Wunderground v.1.15,2013-12-12 21:25:00,
2013-12-12 15:30:00,26.9,17.4,30.33,SSW,209,2.0,3.0,67,0.00,,,0.01,Wunderground v.1.15,2013-12-12 21:30:00,
2013-12-12 15:35:00,26.7,17.6,30.33,SSW,194,2.0,3.0,68,0.00,,,0.01,Wunderground v.1.15,2013-12-12 21:35:00,
2013-12-12 15:45:00,27.0,17.8,30.33,SW,218,0.0,0.0,68,0.00,,,0.01,Wunderground v.1.15,2013-12-12 21:45:00,
2013-12-12 15:50:00,27.0,18.2,30.33,SSW,209,1.0,1.0,69,0.00,,,0.01,Wunderground v.1.15,2013-12-12 21:50:00,
2013-12-12 15:55:00,27.0,18.2,30.33,SSW,209,1.0,1.0,69,0.00,,,0.01,Wunderground v.1.15,2013-12-12 21:55:00,
2013-12-12 16:05:00,26.9,18.1,30.32,SSW,213,1.0,1.0,69,0.00,,,0.01,Wunderground v.1.15,2013-12-12 22:05:00,
2013-12-12 16:10:00,26.9,18.4,30.33,South,188,1.0,1.0,70,0.00,,,0.01,Wunderground v.1.15,2013-12-12 22:10:00,
2013-12-12 16:15:00,26.9,18.1,30.33,SSW,199,0.0,1.0,69,0.00,,,0.01,Wunderground v.1.15,2013-12-12 22:15:00,
2013-12-12 16:20:00,26.8,18.3,30.32,SSW,206,0.0,0.0,70,0.00,,,0.01,Wunderground v.1.15,2013-12-12 22:20:00,
2013-12-12 16:25:00,26.7,18.2,30.32,SW,215,0.0,0.0,70,0.00,,,0.01,Wunderground v.1.15,2013-12-12 22:25:00,
2013-12-12 16:30:00,26.6,18.5,30.31,SSW,207,0.0,0.0,71,0.00,,,0.01,Wunderground v.1.15,2013-12-12 22:30:00,
2013-12-12 16:35:00,26.5,18.4,30.31,SSW,199,0.0,0.0,71,0.00,,,0.01,Wunderground v.1.15,2013-12-12 22:35:00,
2013-12-12 16:45:00,26.2,18.4,30.31,SSW,196,0.0,0.0,72,0.00,,,0.01,Wunderground v.1.15,2013-12-12 22:45:00,
2013-12-12 16:50:00,26.0,18.2,30.30,SSW,195,0.0,0.0,72,0.00,,,0.01,Wunderground v.1.15,2013-12-12 22:50:00,
2013-12-12 17:00:00,25.6,18.1,30.30,SSW,195,0.0,0.0,73,0.00,,,0.01,Wunderground v.1.15,2013-12-12 23:00:00,
2013-12-12 17:05:00,25.4,17.9,30.30,SSW,196,0.0,0.0,73,0.00,,,0.01,Wunderground v.1.15,2013-12-12 23:05:00,
2013-12-12 17:10:00,25.2,18.1,30.30,SSW,196,0.0,0.0,74,0.00,,,0.01,Wunderground v.1.15,2013-12-12 23:10:00,
2013-12-12 17:15:00,25.0,17.9,30.30,SSW,196,0.0,0.0,74,0.00,,,0.01,Wunderground v.1.15,2013-12-12 23:15:00,
2013-12-12 17:20:00,24.8,17.7,30.30,SSW,196,0.0,0.0,74,0.00,,,0.01,Wunderground v.1.15,2013-12-12 23:20:00,
2013-12-12 17:25:00,24.4,17.3,30.30,SSW,196,0.0,0.0,74,0.00,,,0.01,Wunderground v.1.15,2013-12-12 23:25:00,
2013-12-12 17:30:00,24.2,17.4,30.29,SSW,196,0.0,0.0,75,0.00,,,0.01,Wunderground v.1.15,2013-12-12 23:30:00,
2013-12-12 17:40:00,23.7,17.2,30.29,SSW,196,0.0,0.0,76,0.00,,,0.01,Wunderground v.1.15,2013-12-12 23:40:00,
2013-12-12 17:45:00,23.6,17.4,30.29,SSW,196,0.0,0.0,77,0.00,,,0.01,Wunderground v.1.15,2013-12-12 23:45:00,
2013-12-12 17:50:00,23.5,17.3,30.28,SSW,196,0.0,0.0,77,0.00,,,0.01,Wunderground v.1.15,2013-12-12 23:50:00,
2013-12-12 17:55:00,23.3,17.2,30.28,SSW,196,0.0,0.0,77,0.00,,,0.01,Wunderground v.1.15,2013-12-12 23:55:00,
2013-12-12 18:00:00,23.1,17.3,30.28,SSW,196,0.0,0.0,78,0.00,,,0.01,Wunderground v.1.15,2013-12-13 00:00:00,
2013-12-12 18:05:00,22.8,17.0,30.28,SSW,196,0.0,0.0,78,0.00,,,0.01,Wunderground v.1.15,2013-12-13 00:05:00,
2013-12-12 18:15:00,22.5,17.0,30.28,SW,218,0.0,0.0,79,0.00,,,0.01,Wunderground v.1.15,2013-12-13 00:15:00,
2013-12-12 18:20:00,22.6,17.1,30.28,SW,216,0.0,0.0,79,0.00,,,0.01,Wunderground v.1.15,2013-12-13 00:20:00,
2013-12-12 18:25:00,22.7,17.2,30.27,SW,214,0.0,0.0,79,0.00,,,0.01,Wunderground v.1.15,2013-12-13 00:25:00,
2013-12-12 18:30:00,23.0,17.2,30.28,SW,214,0.0,0.0,78,0.00,,,0.01,Wunderground v.1.15,2013-12-13 00:30:00,
2013-12-12 18:35:00,23.3,17.5,30.28,SSW,211,0.0,0.0,78,0.00,,,0.01,Wunderground v.1.15,2013-12-13 00:35:00,
2013-12-12 18:40:00,23.5,17.3,30.27,SSW,212,0.0,0.0,77,0.00,,,0.01,Wunderground v.1.15,2013-12-13 00:40:00,
2013-12-12 18:50:00,23.7,17.5,30.27,SSW,210,0.0,0.0,77,0.00,,,0.01,Wunderground v.1.15,2013-12-13 00:50:00,
2013-12-12 18:55:00,23.5,17.3,30.27,SW,216,0.0,0.0,77,0.00,,,0.01,Wunderground v.1.15,2013-12-13 00:55:00,
2013-12-12 19:00:00,23.5,17.3,30.27,SSW,209,0.0,0.0,77,0.00,,,0.01,Wunderground v.1.15,2013-12-13 01:00:00,
2013-12-12 19:05:00,23.4,17.3,30.27,SSW,202,0.0,0.0,77,0.00,,,0.01,Wunderground v.1.15,2013-12-13 01:05:00,
2013-12-12 19:10:00,23.4,17.3,30.27,SSE,166,0.0,0.0,77,0.00,,,0.01,Wunderground v.1.15,2013-12-13 01:10:00,
2013-12-12 19:15:00,23.3,17.2,30.27,SW,218,0.0,0.0,77,0.00,,,0.01,Wunderground v.1.15,2013-12-13 01:15:00,
2013-12-12 19:20:00,23.2,17.1,30.27,SW,215,0.0,0.0,77,0.00,,,0.01,Wunderground v.1.15,2013-12-13 01:20:00,
2013-12-12 19:25:00,23.0,16.9,30.27,SW,214,0.0,0.0,77,0.00,,,0.01,Wunderground v.1.15,2013-12-13 01:25:00,
2013-12-12 19:30:00,22.8,17.0,30.26,SSW,213,0.0,0.0,78,0.00,,,0.01,Wunderground v.1.15,2013-12-13 01:30:00,
2013-12-12 19:35:00,22.6,16.8,30.26,SW,221,0.0,0.0,78,0.00,,,0.01,Wunderground v.1.15,2013-12-13 01:35:00,
2013-12-12 19:45:00,22.4,16.6,30.26,SW,218,0.0,0.0,78,0.00,,,0.01,Wunderground v.1.15,2013-12-13 01:45:00,
2013-12-12 19:50:00,22.3,16.8,30.26,SW,214,0.0,0.0,79,0.00,,,0.01,Wunderground v.1.15,2013-12-13 01:50:00,
2013-12-12 19:55:00,22.3,16.8,30.26,SW,216,0.0,0.0,79,0.00,,,0.01,Wunderground v.1.15,2013-12-13 01:55:00,
2013-12-12 20:00:00,22.2,16.7,30.26,SW,216,0.0,0.0,79,0.00,,,0.01,Wunderground v.1.15,2013-12-13 02:00:00,
2013-12-12 20:05:00,22.2,16.7,30.26,SW,226,0.0,0.0,79,0.00,,,0.01,Wunderground v.1.15,2013-12-13 02:05:00,
2013-12-12 20:10:00,22.2,16.7,30.26,SW,214,0.0,0.0,79,0.00,,,0.01,Wunderground v.1.15,2013-12-13 02:10:00,
2013-12-12 20:15:00,22.2,16.7,30.26,SW,215,0.0,0.0,79,0.00,,,0.01,Wunderground v.1.15,2013-12-13 02:15:00,
2013-12-12 20:25:00,22.3,16.8,30.26,SW,223,0.0,0.0,79,0.00,,,0.01,Wunderground v.1.15,2013-12-13 02:25:00,
2013-12-12 20:30:00,22.2,16.7,30.25,SSW,207,0.0,0.0,79,0.00,,,0.01,Wunderground v.1.15,2013-12-13 02:30:00,
2013-12-12 20:35:00,22.2,16.7,30.25,SW,221,0.0,0.0,79,0.00,,,0.01,Wunderground v.1.15,2013-12-13 02:35:00,
2013-12-12 20:40:00,22.2,16.7,30.25,SW,215,0.0,0.0,79,0.00,,,0.01,Wunderground v.1.15,2013-12-13 02:40:00,
2013-12-12 20:45:00,22.3,16.8,30.25,SW,217,0.0,0.0,79,0.00,,,0.01,Wunderground v.1.15,2013-12-13 02:45:00,
2013-12-12 20:50:00,22.3,16.8,30.25,SW,215,0.0,0.0,79,0.00,,,0.01,Wunderground v.1.15,2013-12-13 02:50:00,
2013-12-12 21:00:00,22.3,16.8,30.25,SSW,213,0.0,0.0,79,0.00,,,0.01,Wunderground v.1.15,2013-12-13 03:00:00,
2013-12-12 21:05:00,22.2,16.7,30.24,SSW,213,0.0,0.0,79,0.00,,,0.01,Wunderground v.1.15,2013-12-13 03:05:00,
2013-12-12 21:10:00,22.2,17.0,30.24,SSW,212,0.0,0.0,80,0.00,,,0.01,Wunderground v.1.15,2013-12-13 03:10:00,
2013-12-12 21:15:00,22.1,16.9,30.24,SSW,212,0.0,0.0,80,0.00,,,0.01,Wunderground v.1.15,2013-12-13 03:15:00,
2013-12-12 21:20:00,22.1,16.9,30.23,SSW,212,0.0,0.0,80,0.00,,,0.01,Wunderground v.1.15,2013-12-13 03:20:00,
2013-12-12 21:25:00,22.0,16.8,30.23,SSW,212,0.0,0.0,80,0.00,,,0.01,Wunderground v.1.15,2013-12-13 03:25:00,
2013-12-12 21:35:00,21.9,16.7,30.23,SSW,206,0.0,0.0,80,0.00,,,0.01,Wunderground v.1.15,2013-12-13 03:35:00,
2013-12-12 21:40:00,22.0,16.8,30.23,SW,234,0.0,0.0,80,0.00,,,0.01,Wunderground v.1.15,2013-12-13 03:40:00,
2013-12-12 21:45:00,22.1,16.9,30.23,SW,219,0.0,0.0,80,0.00,,,0.01,Wunderground v.1.15,2013-12-13 03:45:00,
2013-12-12 21:50:00,22.0,16.8,30.23,SW,223,0.0,0.0,80,0.00,,,0.01,Wunderground v.1.15,2013-12-13 03:50:00,
2013-12-12 21:55:00,21.9,16.7,30.23,SW,223,0.0,0.0,80,0.00,,,0.01,Wunderground v.1.15,2013-12-13 03:55:00,
2013-12-12 22:05:00,21.7,16.5,30.22,SW,223,0.0,0.0,80,0.00,,,0.01,Wunderground v.1.15,2013-12-13 04:05:00,
2013-12-12 22:10:00,21.6,16.7,30.22,SW,223,0.0,0.0,81,0.00,,,0.01,Wunderground v.1.15,2013-12-13 04:10:00,
2013-12-12 22:15:00,21.4,16.2,30.22,SW,223,0.0,0.0,80,0.00,,,0.01,Wunderground v.1.15,2013-12-13 04:15:00,
2013-12-12 22:20:00,21.1,16.2,30.22,SW,223,0.0,0.0,81,0.00,,,0.01,Wunderground v.1.15,2013-12-13 04:20:00,
2013-12-12 22:25:00,20.7,15.8,30.22,SW,223,0.0,0.0,81,0.00,,,0.01,Wunderground v.1.15,2013-12-13 04:25:00,
2013-12-12 22:30:00,20.5,15.6,30.21,SW,223,0.0,0.0,81,0.00,,,0.01,Wunderground v.1.15,2013-12-13 04:30:00,
2013-12-12 22:35:00,20.4,15.8,30.21,SW,223,0.0,0.0,82,0.00,,,0.01,Wunderground v.1.15,2013-12-13 04:35:00,
2013-12-12 22:45:00,20.4,15.8,30.21,SW,223,0.0,0.0,82,0.00,,,0.01,Wunderground v.1.15,2013-12-13 04:45:00,
2013-12-12 22:50:00,20.3,16.0,30.21,SW,223,0.0,0.0,83,0.00,,,0.01,Wunderground v.1.15,2013-12-13 04:50:00,
2013-12-12 22:55:00,20.1,15.8,30.21,SW,223,0.0,0.0,83,0.00,,,0.01,Wunderground v.1.15,2013-12-13 04:55:00,
2013-12-12 23:05:00,19.8,15.5,30.21,SW,223,0.0,0.0,83,0.00,,,0.01,Wunderground v.1.15,2013-12-13 05:05:00,
2013-12-12 23:10:00,19.8,15.5,30.20,SW,223,0.0,0.0,83,0.00,,,0.01,Wunderground v.1.15,2013-12-13 05:10:00,
2013-12-12 23:15:00,19.7,15.4,30.20,SW,223,0.0,0.0,83,0.00,,,0.01,Wunderground v.1.15,2013-12-13 05:15:00,
2013-12-12 23:20:00,19.5,15.5,30.19,SW,223,0.0,0.0,84,0.00,,,0.01,Wunderground v.1.15,2013-12-13 05:20:00,
2013-12-12 23:25:00,19.3,15.0,30.19,SW,223,0.0,0.0,83,0.00,,,0.01,Wunderground v.1.15,2013-12-13 05:25:00,
2013-12-12 23:30:00,19.1,14.8,30.19,SW,223,0.0,0.0,83,0.00,,,0.01,Wunderground v.1.15,2013-12-13 05:30:00,
2013-12-12 23:35:00,18.4,14.1,30.19,SW,223,0.0,0.0,83,0.00,,,0.01,Wunderground v.1.15,2013-12-13 05:35:00,
2013-12-12 23:40:00,18.0,14.0,30.19,SW,223,0.0,0.0,84,0.00,,,0.01,Wunderground v.1.15,2013-12-13 05:40:00,
2013-12-12 23:45:00,17.8,14.1,30.18,SW,223,0.0,0.0,85,0.00,,,0.01,Wunderground v.1.15,2013-12-13 05:45:00,
2013-12-12 23:50:00,17.7,14.0,30.18,SW,223,0.0,0.0,85,0.00,,,0.01,Wunderground v.1.15,2013-12-13 05:50:00,
2013-12-12 23:55:00,17.7,14.0,30.18,SW,223,0.0,0.0,85,0.00,,,0.01,Wunderground v.1.15,2013-12-13 05:55:00,